Powrót do katalogu

COSMOS 1536

AktywnyMilitariaPO
NORAD 14699·PAYLOAD·🇷🇺 Russia

Wystrzelony Feb 8, 1984 z Plesetsk Cosmodrome

Loading…

Następne Przeloty (najbliższe 24 godziny)

TLE

ŚwieżeSource: Space-Track

Epoka: Sep 14, 2026, 12:02 UTC

1 14699U 84013A   26257.50152309  .00004201  00000-0  16225-3 0  9998
2 14699  82.5406 279.8340 0012981 345.4843  14.6021 15.25909873301390

Śledź COSMOS 1536 w czasie rzeczywistym z AllMySat

Download on the App Store